N816LP KPWM-KPQI

Flight info

Callsign N816LP
Flight time 1h 0m
Altitude 17000
Route KPWM BRNNS T295 BGR V471 MLT V39 CROIX KPQI
Aircraft B350/L-VGDW/C

Departure

Time 2026-05-06 01:46
Airport Portland International Jetport (KPWM)

Arrival

Time 2026-05-06 02:46
Airport Presque Isle International Airport (KPQI)
Time Latitude Longitude Altitude Speed Heading
2026-05-06 01:34 43.65001 -70.30819 64 ft 0 kts 177°
2026-05-06 01:36 43.65013 -70.30820 59 ft 3 kts 177°
2026-05-06 01:36 43.65028 -70.30821 63 ft 0 kts 177°
2026-05-06 01:41 43.65021 -70.30806 60 ft 7 kts 68°
2026-05-06 01:41 43.65049 -70.30750 64 ft 12 kts 43°
2026-05-06 01:41 43.65129 -70.30735 62 ft 13 kts
2026-05-06 01:42 43.65203 -70.30755 62 ft 12 kts 341°
2026-05-06 01:42 43.65313 -70.30810 59 ft 16 kts 340°
2026-05-06 01:42 43.65362 -70.30834 57 ft 5 kts 341°
2026-05-06 01:42 43.65363 -70.30835 57 ft 0 kts 340°
2026-05-06 01:43 43.65397 -70.30839 58 ft 6 kts 27°
2026-05-06 01:43 43.65429 -70.30772 57 ft 11 kts 69°
2026-05-06 01:44 43.65407 -70.30714 58 ft 0 kts 162°
2026-05-06 01:45 43.65337 -70.30684 54 ft 48 kts 164°
2026-05-06 01:45 43.64702 -70.30428 88 ft 132 kts 165°
2026-05-06 01:45 43.63707 -70.30042 296 ft 167 kts 164°
2026-05-06 01:45 43.62497 -70.29529 602 ft 177 kts 165°
2026-05-06 01:46 43.61346 -70.29194 1299 ft 159 kts 194°
2026-05-06 01:46 43.60397 -70.29795 2005 ft 147 kts 218°
2026-05-06 01:46 43.59866 -70.30903 2724 ft 141 kts 248°
2026-05-06 01:46 43.59541 -70.32183 3382 ft 144 kts 249°
2026-05-06 01:47 43.59445 -70.33539 4094 ft 153 kts 288°
2026-05-06 01:47 43.60372 -70.34401 4815 ft 183 kts 346°
2026-05-06 01:47 43.61678 -70.33854 5275 ft 218 kts 36°
2026-05-06 01:47 43.62549 -70.32044 5619 ft 238 kts 69°
2026-05-06 01:48 43.63249 -70.29931 5970 ft 245 kts 45°
2026-05-06 01:48 43.64728 -70.29210 6183 ft 228 kts 335°
2026-05-06 01:48 43.66026 -70.30398 6098 ft 233 kts 317°
2026-05-06 01:48 43.67541 -70.31290 6406 ft 249 kts 349°
2026-05-06 01:49 43.69214 -70.30626 6731 ft 267 kts 32°
2026-05-06 01:49 43.70301 -70.28545 7044 ft 273 kts 75°
2026-05-06 01:49 43.70249 -70.26005 7355 ft 262 kts 118°
2026-05-06 01:49 43.69366 -70.23851 7645 ft 261 kts 121°
2026-05-06 01:50 43.69140 -70.21331 7940 ft 273 kts 82°
2026-05-06 01:50 43.69961 -70.19000 8266 ft 271 kts 44°
2026-05-06 01:50 43.71506 -70.17663 8593 ft 258 kts 12°
2026-05-06 01:50 43.73148 -70.16662 8953 ft 266 kts 34°
2026-05-06 01:51 43.74499 -70.14872 9283 ft 271 kts 43°
2026-05-06 01:51 43.75789 -70.12959 9617 ft 273 kts 44°
2026-05-06 01:51 43.77071 -70.11018 9954 ft 274 kts 44°
2026-05-06 01:51 43.78390 -70.09115 10270 ft 273 kts 38°
2026-05-06 01:52 43.79834 -70.07419 10588 ft 272 kts 37°
2026-05-06 01:52 43.81251 -70.05661 10907 ft 274 kts 39°
2026-05-06 01:52 43.82651 -70.03912 11226 ft 274 kts 38°
2026-05-06 01:52 43.84079 -70.02165 11543 ft 275 kts 39°
2026-05-06 01:53 43.85504 -70.00392 11872 ft 275 kts 39°
2026-05-06 01:53 43.86935 -69.98621 12201 ft 276 kts 39°
2026-05-06 01:53 43.88369 -69.96843 12540 ft 277 kts 39°
2026-05-06 01:53 43.89786 -69.95029 12872 ft 278 kts 40°
2026-05-06 01:54 43.91283 -69.93343 13211 ft 277 kts 34°
2026-05-06 01:54 43.92797 -69.91685 13560 ft 278 kts 37°
2026-05-06 01:54 43.94299 -69.89975 13878 ft 279 kts 36°
2026-05-06 01:54 43.95818 -69.88292 14185 ft 280 kts 36°
2026-05-06 01:55 43.97335 -69.86592 14496 ft 280 kts 37°
2026-05-06 01:55 43.98836 -69.84906 14790 ft 281 kts 36°
2026-05-06 01:55 44.00362 -69.83199 15115 ft 282 kts 37°
2026-05-06 01:55 44.01889 -69.81487 15436 ft 282 kts 37°
2026-05-06 01:56 44.03418 -69.79769 15761 ft 283 kts 37°
2026-05-06 01:56 44.04954 -69.78043 16082 ft 284 kts 37°
2026-05-06 01:56 44.06490 -69.76316 16418 ft 284 kts 37°
2026-05-06 01:56 44.08033 -69.74582 16732 ft 286 kts 37°
2026-05-06 01:57 44.09600 -69.72817 16887 ft 294 kts 37°
2026-05-06 01:57 44.11211 -69.71001 16958 ft 302 kts 37°
2026-05-06 01:57 44.12864 -69.69137 16990 ft 309 kts 37°
2026-05-06 01:57 44.14544 -69.67241 17002 ft 314 kts 37°
2026-05-06 01:58 44.16249 -69.65319 16978 ft 317 kts 37°
2026-05-06 01:58 44.17970 -69.63374 16986 ft 320 kts 37°
2026-05-06 01:58 44.19703 -69.61414 16981 ft 321 kts 37°
2026-05-06 01:58 44.21442 -69.59447 17004 ft 323 kts 37°
2026-05-06 01:59 44.23187 -69.57470 17004 ft 324 kts 37°
2026-05-06 01:59 44.24913 -69.55516 16999 ft 324 kts 38°
2026-05-06 01:59 44.26665 -69.53527 17001 ft 325 kts 37°
2026-05-06 01:59 44.28419 -69.51538 16999 ft 325 kts 38°
2026-05-06 02:00 44.30173 -69.49543 16999 ft 326 kts 38°
2026-05-06 02:00 44.31930 -69.47547 16995 ft 326 kts 38°
2026-05-06 02:00 44.33690 -69.45543 16991 ft 326 kts 37°
2026-05-06 02:00 44.35449 -69.43542 16968 ft 326 kts 38°
2026-05-06 02:01 44.37205 -69.41537 16968 ft 326 kts 37°
2026-05-06 02:01 44.38961 -69.39537 16968 ft 326 kts 38°
2026-05-06 02:01 44.40723 -69.37525 16969 ft 326 kts 38°
2026-05-06 02:01 44.42482 -69.35514 16971 ft 326 kts 38°
2026-05-06 02:02 44.44219 -69.33530 16974 ft 326 kts 38°
2026-05-06 02:02 44.45976 -69.31518 16973 ft 327 kts 38°
2026-05-06 02:02 44.47735 -69.29502 16968 ft 327 kts 38°
2026-05-06 02:02 44.49497 -69.27486 16969 ft 327 kts 38°
2026-05-06 02:03 44.51254 -69.25468 16970 ft 327 kts 38°
2026-05-06 02:03 44.53014 -69.23449 16971 ft 326 kts 38°
2026-05-06 02:03 44.54775 -69.21426 16973 ft 327 kts 38°
2026-05-06 02:03 44.56533 -69.19404 16973 ft 327 kts 38°
2026-05-06 02:04 44.58290 -69.17382 16980 ft 327 kts 38°
2026-05-06 02:04 44.60053 -69.15353 16971 ft 327 kts 38°
2026-05-06 02:04 44.61808 -69.13327 16977 ft 327 kts 38°
2026-05-06 02:04 44.63571 -69.11296 16981 ft 327 kts 38°
2026-05-06 02:05 44.65310 -69.09286 16982 ft 327 kts 38°
2026-05-06 02:05 44.67069 -69.07254 16988 ft 328 kts 38°
2026-05-06 02:05 44.68830 -69.05217 16991 ft 328 kts 38°
2026-05-06 02:05 44.70593 -69.03177 16985 ft 328 kts 38°
2026-05-06 02:06 44.72357 -69.01134 16985 ft 328 kts 38°
2026-05-06 02:06 44.74118 -68.99092 16985 ft 328 kts 38°
2026-05-06 02:06 44.75283 -68.97741 16988 ft 328 kts 38°
2026-05-06 02:06 44.77043 -68.95699 16993 ft 328 kts 38°
2026-05-06 02:07 44.78806 -68.93649 16994 ft 328 kts 38°
2026-05-06 02:07 44.80567 -68.91602 16990 ft 328 kts 38°
2026-05-06 02:07 44.82357 -68.89602 16989 ft 327 kts 33°
2026-05-06 02:07 44.84278 -68.87880 16997 ft 325 kts 25°
2026-05-06 02:08 44.86262 -68.86433 16993 ft 324 kts 21°
2026-05-06 02:08 44.88368 -68.85354 16991 ft 320 kts 11°
2026-05-06 02:08 44.90501 -68.84443 16995 ft 321 kts 14°
2026-05-06 02:08 44.92614 -68.83375 16991 ft 321 kts 13°
2026-05-06 02:09 44.94740 -68.82396 16984 ft 321 kts 14°
2026-05-06 02:09 44.96857 -68.81365 16988 ft 321 kts 14°
2026-05-06 02:09 44.98978 -68.80361 16988 ft 321 kts 13°
2026-05-06 02:09 45.01098 -68.79345 16985 ft 321 kts 14°
2026-05-06 02:10 45.03217 -68.78331 16985 ft 321 kts 13°
2026-05-06 02:10 45.05336 -68.77320 16985 ft 321 kts 14°
2026-05-06 02:10 45.07426 -68.76316 16981 ft 321 kts 13°
2026-05-06 02:10 45.09555 -68.75298 16985 ft 321 kts 13°
2026-05-06 02:11 45.11671 -68.74283 16982 ft 321 kts 13°
2026-05-06 02:11 45.13791 -68.73265 16983 ft 321 kts 13°
2026-05-06 02:11 45.15910 -68.72250 16982 ft 321 kts 13°
2026-05-06 02:11 45.18027 -68.71230 16978 ft 321 kts 13°
2026-05-06 02:12 45.20151 -68.70210 16984 ft 321 kts 13°
2026-05-06 02:12 45.22270 -68.69191 16983 ft 321 kts 13°
2026-05-06 02:12 45.24383 -68.68172 16983 ft 321 kts 13°
2026-05-06 02:12 45.26503 -68.67151 16987 ft 321 kts 13°
2026-05-06 02:13 45.28589 -68.66145 16984 ft 321 kts 13°
2026-05-06 02:13 45.30728 -68.65112 16981 ft 320 kts 13°
2026-05-06 02:13 45.32815 -68.64102 16982 ft 320 kts 13°
2026-05-06 02:13 45.34927 -68.63083 16982 ft 320 kts 13°
2026-05-06 02:14 45.37036 -68.62060 16974 ft 320 kts 13°
2026-05-06 02:14 45.39143 -68.61042 16977 ft 319 kts 13°
2026-05-06 02:14 45.41248 -68.60024 16973 ft 320 kts 13°
2026-05-06 02:14 45.43355 -68.58997 16966 ft 320 kts 13°
2026-05-06 02:15 45.45463 -68.57977 16962 ft 319 kts 13°
2026-05-06 02:15 45.47565 -68.56956 16960 ft 319 kts 13°
2026-05-06 02:15 45.49648 -68.55941 16956 ft 319 kts 13°
2026-05-06 02:15 45.51748 -68.54922 16957 ft 319 kts 13°
2026-05-06 02:16 45.53853 -68.53894 16956 ft 319 kts 13°
2026-05-06 02:16 45.55955 -68.52870 16954 ft 319 kts 13°
2026-05-06 02:16 45.58063 -68.51845 16955 ft 319 kts 13°
2026-05-06 02:16 45.60192 -68.50973 16950 ft 315 kts
2026-05-06 02:17 45.62336 -68.50309 16954 ft 316 kts
2026-05-06 02:17 45.64471 -68.49520 16957 ft 317 kts
2026-05-06 02:17 45.66615 -68.48797 16955 ft 317 kts
2026-05-06 02:17 45.68756 -68.48045 16954 ft 317 kts
2026-05-06 02:18 45.70904 -68.47295 16955 ft 317 kts
2026-05-06 02:18 45.73023 -68.46561 16957 ft 317 kts
2026-05-06 02:18 45.75172 -68.45806 16955 ft 317 kts
2026-05-06 02:18 45.77332 -68.45057 16756 ft 321 kts
2026-05-06 02:19 45.79499 -68.44291 16401 ft 321 kts
2026-05-06 02:19 45.81674 -68.43540 16048 ft 320 kts
2026-05-06 02:19 45.83837 -68.42781 15700 ft 319 kts
2026-05-06 02:19 45.85993 -68.42026 15351 ft 318 kts
2026-05-06 02:20 45.90255 -68.40532 14673 ft 316 kts
2026-05-06 02:20 45.92386 -68.39787 14335 ft 314 kts
2026-05-06 02:20 45.94509 -68.39041 14004 ft 313 kts
2026-05-06 02:21 45.96623 -68.38297 13674 ft 312 kts
2026-05-06 02:21 45.98731 -68.37556 13309 ft 311 kts
2026-05-06 02:21 46.00826 -68.36820 12940 ft 310 kts
2026-05-06 02:21 46.02917 -68.36081 12578 ft 309 kts
2026-05-06 02:22 46.05002 -68.35348 12221 ft 308 kts
2026-05-06 02:22 46.07082 -68.34615 11860 ft 307 kts
2026-05-06 02:22 46.09156 -68.33880 11502 ft 306 kts
2026-05-06 02:22 46.11226 -68.33150 11160 ft 306 kts
2026-05-06 02:23 46.13290 -68.32421 10810 ft 305 kts
2026-05-06 02:23 46.15344 -68.31692 10473 ft 304 kts
2026-05-06 02:23 46.17394 -68.30967 10200 ft 302 kts
2026-05-06 02:23 46.19414 -68.30254 10052 ft 295 kts
2026-05-06 02:24 46.21362 -68.29562 9996 ft 288 kts
2026-05-06 02:24 46.23291 -68.28880 9966 ft 283 kts
2026-05-06 02:24 46.25190 -68.28205 9947 ft 279 kts
2026-05-06 02:24 46.26980 -68.27095 9934 ft 287 kts 34°
2026-05-06 02:25 46.28135 -68.24829 9926 ft 278 kts 71°
2026-05-06 02:25 46.28335 -68.22155 9923 ft 262 kts 99°
2026-05-06 02:25 46.28620 -68.19582 9943 ft 263 kts 63°
2026-05-06 02:25 46.29826 -68.17710 9944 ft 251 kts 21°
2026-05-06 02:26 46.31425 -68.17229 9938 ft 223 kts 338°
2026-05-06 02:26 46.32848 -68.17874 9912 ft 217 kts 333°
2026-05-06 02:26 46.34350 -68.18285 9914 ft 222 kts 338°
2026-05-06 02:26 46.35958 -68.18657 9918 ft 245 kts 340°
2026-05-06 02:27 46.37700 -68.19068 9915 ft 259 kts 339°
2026-05-06 02:27 46.39489 -68.19627 9919 ft 267 kts 338°
2026-05-06 02:27 46.41314 -68.20170 9915 ft 273 kts 339°
2026-05-06 02:27 46.43190 -68.20713 9916 ft 276 kts 339°
2026-05-06 02:28 46.45079 -68.21292 9910 ft 278 kts 339°
2026-05-06 02:28 46.46980 -68.21853 9913 ft 279 kts 339°
2026-05-06 02:28 46.48886 -68.22422 9909 ft 280 kts 339°
2026-05-06 02:28 46.50798 -68.22998 9901 ft 281 kts 339°
2026-05-06 02:29 46.52712 -68.23565 9904 ft 281 kts 339°
2026-05-06 02:29 46.54624 -68.24141 9909 ft 280 kts 339°
2026-05-06 02:29 46.56544 -68.24715 9901 ft 281 kts 339°
2026-05-06 02:29 46.58459 -68.25287 9904 ft 280 kts 339°
2026-05-06 02:30 46.60347 -68.25856 9912 ft 281 kts 339°
2026-05-06 02:30 46.62261 -68.26426 9904 ft 281 kts 339°
2026-05-06 02:30 46.64177 -68.27003 9909 ft 281 kts 339°
2026-05-06 02:30 46.66098 -68.27580 9911 ft 282 kts 339°
2026-05-06 02:31 46.68016 -68.28155 9902 ft 282 kts 339°
2026-05-06 02:31 46.69938 -68.28734 9904 ft 281 kts 339°
2026-05-06 02:31 46.71847 -68.29307 9960 ft 279 kts 338°
2026-05-06 02:31 46.73755 -68.29884 9987 ft 280 kts 338°
2026-05-06 02:32 46.75673 -68.30461 9996 ft 281 kts 339°
2026-05-06 02:32 46.77587 -68.31037 9994 ft 281 kts 338°
2026-05-06 02:32 46.79480 -68.31608 9996 ft 282 kts 338°
2026-05-06 02:32 46.81354 -68.32113 9910 ft 267 kts 345°
2026-05-06 02:33 46.83198 -68.31554 9566 ft 281 kts 22°
2026-05-06 02:33 46.84235 -68.30352 9311 ft 284 kts 46°
2026-05-06 02:33 46.84931 -68.24288 8471 ft 255 kts 108°
2026-05-06 02:34 46.84553 -68.21794 8117 ft 245 kts 114°
2026-05-06 02:34 46.83714 -68.19841 7754 ft 214 kts 152°
2026-05-06 02:34 46.82658 -68.18310 7409 ft 226 kts 127°
2026-05-06 02:34 46.82404 -68.15995 7084 ft 241 kts 81°
2026-05-06 02:35 46.83154 -68.13860 6759 ft 235 kts 37°
2026-05-06 02:35 46.84505 -68.12856 6434 ft 213 kts 356°
2026-05-06 02:35 46.85956 -68.12598 6076 ft 209 kts 352°
2026-05-06 02:35 46.87394 -68.12489 5714 ft 202 kts 343°
2026-05-06 02:36 46.88717 -68.12896 5355 ft 191 kts 331°
2026-05-06 02:36 46.89987 -68.13441 4996 ft 189 kts 329°
2026-05-06 02:36 46.91239 -68.14021 4630 ft 188 kts 328°
2026-05-06 02:36 46.92480 -68.14604 4287 ft 187 kts 328°
2026-05-06 02:37 46.93710 -68.15204 3941 ft 186 kts 328°
2026-05-06 02:37 46.94933 -68.15831 3605 ft 187 kts 327°
2026-05-06 02:37 46.96159 -68.16477 3291 ft 187 kts 327°
2026-05-06 02:37 46.97341 -68.17108 3136 ft 175 kts 320°
2026-05-06 02:38 46.97938 -68.18257 3098 ft 127 kts 259°
2026-05-06 02:38 46.97375 -68.19016 3131 ft 131 kts 189°
2026-05-06 02:38 46.96458 -68.18619 3087 ft 138 kts 177°
2026-05-06 02:38 46.95713 -68.18867 3039 ft 104 kts 239°
2026-05-06 02:39 46.95357 -68.19757 2997 ft 99 kts 238°
2026-05-06 02:39 46.94856 -68.20721 3005 ft 140 kts 232°
2026-05-06 02:39 46.94128 -68.21868 3001 ft 165 kts 230°
2026-05-06 02:39 46.93280 -68.23125 3012 ft 181 kts 227°
2026-05-06 02:40 46.92122 -68.23952 3051 ft 199 kts 189°
2026-05-06 02:40 46.90825 -68.23170 3030 ft 217 kts 144°
2026-05-06 02:40 46.90195 -68.21120 3019 ft 231 kts 101°
2026-05-06 02:40 46.90082 -68.18801 3004 ft 224 kts 107°
2026-05-06 02:41 46.89630 -68.16691 3003 ft 213 kts 123°
2026-05-06 02:41 46.88925 -68.14851 3000 ft 202 kts 137°
2026-05-06 02:41 46.88033 -68.13296 2816 ft 194 kts 149°
2026-05-06 02:41 46.86952 -68.12221 2425 ft 180 kts 163°
2026-05-06 02:42 46.85908 -68.11481 2199 ft 157 kts 168°
2026-05-06 02:42 46.84966 -68.10909 2068 ft 135 kts 170°
2026-05-06 02:42 46.84069 -68.10447 2038 ft 142 kts 176°
2026-05-06 02:42 46.83078 -68.10114 2022 ft 150 kts 178°
2026-05-06 02:43 46.82043 -68.09756 2016 ft 155 kts 175°
2026-05-06 02:43 46.80987 -68.09345 2012 ft 158 kts 174°
2026-05-06 02:43 46.79913 -68.08943 1978 ft 159 kts 174°
2026-05-06 02:43 46.78850 -68.08539 1971 ft 156 kts 173°
2026-05-06 02:44 46.77804 -68.08142 2025 ft 155 kts 175°
2026-05-06 02:44 46.76756 -68.07765 2032 ft 150 kts 175°
2026-05-06 02:44 46.75859 -68.07418 2014 ft 123 kts 176°
2026-05-06 02:44 46.75066 -68.07019 1731 ft 122 kts 173°
2026-05-06 02:45 46.74252 -68.06731 1432 ft 123 kts 180°
2026-05-06 02:45 46.73400 -68.06486 1225 ft 126 kts 172°
2026-05-06 02:45 46.72543 -68.06184 1020 ft 128 kts 168°
2026-05-06 02:45 46.71692 -68.05881 887 ft 124 kts 167°
2026-05-06 02:46 46.70867 -68.05572 743 ft 119 kts 167°
2026-05-06 02:46 46.70075 -68.05283 563 ft 112 kts 166°
2026-05-06 02:46 46.69381 -68.05030 506 ft 96 kts 166°
2026-05-06 02:46 46.68979 -68.04885 494 ft 35 kts 168°
2026-05-06 02:47 46.68861 -68.04856 485 ft 8 kts 147°
2026-05-06 02:47 46.68891 -68.04843 485 ft 10 kts 345°
2026-05-06 02:47 46.69056 -68.04905 497 ft 30 kts 345°
2026-05-06 02:47 46.69183 -68.04904 500 ft 13 kts 47°
2026-05-06 02:48 46.69208 -68.04800 502 ft 13 kts 75°
2026-05-06 02:48 46.69270 -68.04728 504 ft 15 kts 350°
2026-05-06 02:48 46.69387 -68.04765 508 ft 19 kts 346°
2026-05-06 02:48 46.69470 -68.04787 512 ft 8 kts 27°
2026-05-06 02:49 46.69492 -68.04730 511 ft 4 kts 58°
2026-05-06 02:49 46.69540 -68.04726 513 ft 10 kts 345°
2026-05-06 02:49 46.69585 -68.04742 515 ft 5 kts 344°
2026-05-06 02:49 46.69593 -68.04756 515 ft 0 kts 268°
2026-05-06 02:50 46.69593 -68.04758 515 ft 0 kts 255°